Voltar ao catálogo

STARLINK-11676

AtivoComunicaçõesVLEO
NORAD 63757·PAYLOAD·🇺🇸 United States

Lançado Apr 29, 2025 de Cape Canaveral Space Force Station

Loading…

Próximas Passagens (próximas 24 horas)

TLE

AtualizadoSource: CelesTrak SupGP

Época: Sep 15, 2026, 03:10 UTC

1 63757C 25089G   26258.13243056 -.00098577  00000+0 -76555-3 0  2585
2 63757  43.0006 229.9107 0001575 264.9347 136.5543 15.70890207    13

Acompanhe STARLINK-11676 em tempo real com AllMySat

Download on the App Store